ROMMA est une association bénévole à but non lucratif. Votre soutien est indispensable : ADHERER à ROMMA ou FAIRE un DON

La Javie - (04, Alpes de Haute Provence)

Vallée de la Bléone (820 m)   Longitude: 06° 21' E   Latitude: 44° 10' N Station partenaire n°129
 

Détail journalier du     <<     >>

Température Precipitation Humidité Pression Vent Dir Rafale Dir. rafale Ensol.
Heure (°C) (mm) (%) (hPa) (km/h) (km/h) (min)
01:00 10.4093101700---0
02:00 10.1094101700---0
03:00 9.6095101600---0
04:00 9.6097101608---0
05:00 10.6089101405---0
06:00 10.4091101605---0
07:00 10.7091101603---0
08:00 11.7090101600---0
09:00 14.2080101500---0
10:00 17.7066101502---0
11:00 19.705110161---11---0
12:00 20.604310164---18---0
13:00 21.104610153---11---0
14:00 21.604810153---16---0
15:00 21.905210144---23---0
16:00 21.505210145---19---0
17:00 20.805610143---16---0
18:00 20.606410141---10---0
19:00 20.1062101406---0
20:00 19.1067101400---0
21:00 16.9076101400---0
22:00 15.1084101400---0
23:00 13.6089101402---0
minuit 12.4093101400---0

Graphique du 05-05-2020

 

Serveur OMMA